TimeEST,TemperatureF,Dew PointF,Humidity,Sea Level PressureIn,VisibilityMPH,Wind Direction,Wind SpeedMPH,Gust SpeedMPH,PrecipitationIn,Events,Conditions,WindDirDegrees,DateUTC
12:52 AM,28.0,21.0,75,30.20,7.0,SSW,11.5,19.6,N/A,,Clear,210,2013-01-08 05:52:00
1:52 AM,27.0,19.9,75,30.21,6.0,SW,6.9,-,N/A,,Haze,220,2013-01-08 06:52:00
2:52 AM,26.1,19.9,78,30.23,6.0,SW,5.8,-,N/A,,Haze,230,2013-01-08 07:52:00
3:52 AM,26.1,19.9,78,30.22,6.0,SSW,6.9,-,N/A,,Haze,210,2013-01-08 08:52:00
4:52 AM,26.1,19.9,78,30.22,6.0,SW,8.1,-,N/A,,Haze,220,2013-01-08 09:52:00
5:52 AM,26.1,19.9,78,30.22,6.0,SW,8.1,-,N/A,,Haze,220,2013-01-08 10:52:00
6:52 AM,24.8,19.4,80,30.20,6.0,SSW,5.8,-,N/A,,Haze,200,2013-01-08 11:52:00
7:52 AM,24.8,19.4,80,30.22,5.0,SSW,4.6,-,N/A,,Haze,200,2013-01-08 12:52:00
8:52 AM,25.0,19.9,81,30.27,4.0,South,3.5,-,N/A,,Haze,190,2013-01-08 13:52:00
9:52 AM,28.9,21.0,72,30.29,5.0,South,4.6,-,N/A,,Haze,190,2013-01-08 14:52:00
10:52 AM,32.0,21.9,66,30.29,6.0,South,8.1,-,N/A,,Haze,190,2013-01-08 15:52:00
11:52 AM,35.1,23.0,61,30.28,7.0,SSW,9.2,-,N/A,,Clear,210,2013-01-08 16:52:00
12:52 PM,36.0,24.1,62,30.25,7.0,WSW,6.9,-,N/A,,Clear,240,2013-01-08 17:52:00
1:52 PM,36.0,24.1,62,30.24,7.0,SSW,6.9,-,N/A,,Clear,210,2013-01-08 18:52:00
2:52 PM,36.0,26.1,67,30.25,7.0,South,6.9,-,N/A,,Clear,190,2013-01-08 19:52:00
3:52 PM,37.0,26.1,65,30.25,7.0,South,5.8,-,N/A,,Clear,190,2013-01-08 20:52:00
4:52 PM,36.0,26.1,67,30.26,6.0,South,5.8,-,N/A,,Haze,180,2013-01-08 21:52:00
5:52 PM,34.0,26.1,73,30.26,7.0,South,4.6,-,N/A,,Clear,190,2013-01-08 22:52:00
6:52 PM,32.0,26.1,79,30.26,6.0,South,4.6,-,N/A,,Haze,170,2013-01-08 23:52:00
7:52 PM,32.0,26.1,79,30.26,6.0,South,4.6,-,N/A,,Haze,170,2013-01-09 00:52:00
8:52 PM,32.0,25.0,75,30.24,7.0,South,4.6,-,N/A,,Clear,170,2013-01-09 01:52:00
9:52 PM,32.0,25.0,75,30.23,7.0,South,4.6,-,N/A,,Clear,180,2013-01-09 02:52:00
10:52 PM,32.0,26.1,79,30.22,7.0,South,4.6,-,N/A,,Clear,190,2013-01-09 03:52:00
11:52 PM,33.1,26.1,75,30.19,8.0,South,6.9,-,N/A,,Clear,190,2013-01-09 04:52:00